Tracking 19170 objects as of 23-May-2018
HD Live streaming from Space Station
objects crossing your sky now

FENGYUN 1C DEB

Track FENGYUN 1C DEB now!
10-day predictions


NORAD ID: 30471
Int'l Code: 1999-025AGJ
Perigee: 826.3 km
Apogee: 961.9 km
Inclination: 99.2 °
Period: 102.7 minutes
Semi major axis: 7265 km
RCS: 0.033 m2 (small)
Launch date: May 10, 1999
Source: People's Republic of China (PRC)
Launch site: Taiyaun Space Center, China (TSC)

Note: This is SATELLITE DEBRIS
aabbcc
Your satellite tracking list
Your tracking list is empty




NASA's NSSDC Master Catalog

Two Line Element Set (TLE):
1 30471U 99025AGJ 18142.59563130 +.00000484 +00000-0 +33505-3 0  9993
2 30471 099.2199 174.4731 0093282 001.6233 124.6157 14.01979357576631
Source of the keplerian elements: AFSPC